Westminster, MD

8:30 AM EDT on August 26, 2016 (GMT -0400)
Carroll County Regional-Poage

Weather History for KDMW - May, 2013

Change the Weather History Date:

Sunday, May 5, 2013

  Actual Average (KTHV) Record (KTHV)
Temperature  
Mean Temperature 54 °F -  
Max Temperature 66 °F 64 °F 84 °F (2000)
Min Temperature 42 °F 40 °F 32 °F (2005)
Degree Days  
Heating Degree Days 11    
Growing Degree Days 4 (Base 50)    
Moisture  
Dew Point 38 °F    
Average Humidity 60    
Maximum Humidity 87    
Minimum Humidity 30    
Precipitation  
Precipitation 0.00 in - - ()
Sea Level Pressure  
Sea Level Pressure 30.22 in    
Wind  
Wind Speed 4 mph (ESE)    
Max Wind Speed 10 mph    
Max Gust Speed 17 mph    
Visibility 10 miles    
Events      
Averages and records for this station are not official NWS values.
T = Trace of Precipitation, MM = Missing Value Source: NWS Daily Summary

Daily Weather History Graph

Daily Weather History Graph

Search for Another Location

Airport or City:

Trip Planner

Search our weather history database for the weather conditions in past years. The results will help you decide how hot, cold, wet, or windy it might be!

Date:

Astronomy

May. 05, 2013 Rise Set
Actual Time 6:03 AM EDT 8:06 PM EDT
Civil Twilight 5:34 AM EDT 8:35 PM EDT
Nautical Twilight 4:58 AM EDT 9:11 PM EDT
Astronomical Twilight 4:19 AM EDT 9:51 PM EDT
Moon 3:32 AM EDT (5/5) 4:04 PM EDT (5/5)
Length of Visible Light 15h 01m
Length of Day
14h 02m
Waning Crescent, 18% of the Moon is Illuminated
May 5
Waning Crescent
May 9
New
May 18
First Quarter
May 25
Full
May 31
Last Quarter

Hourly Weather History & Observations

Time (EDT) Temp. Windchill Dew Point Humidity Pressure Visibility Wind Dir Wind Speed Gust Speed Precip Events Conditions
12:10 AM 51.8 °F - 39.2 °F 62% 30.25 in 10.0 mi SE 6.9 mph - N/A   Clear
12:30 AM 50.0 °F - 41.0 °F 71% 30.25 in 10.0 mi SE 4.6 mph - N/A   Clear
12:50 AM 50.0 °F - 41.0 °F 71% 30.25 in 10.0 mi Calm Calm - N/A   Clear
1:10 AM 48.2 °F - 41.0 °F 76% 30.25 in 10.0 mi Calm Calm - N/A   Clear
1:30 AM 48.2 °F - 41.0 °F 76% 30.24 in 10.0 mi Calm Calm - N/A   Clear
1:50 AM 48.2 °F - 41.0 °F 76% 30.24 in 10.0 mi Calm Calm - N/A   Clear
2:10 AM 46.4 °F - 41.0 °F 81% 30.23 in 10.0 mi Calm Calm - N/A   Clear
2:30 AM 46.4 °F 45.2 °F 41.0 °F 81% 30.23 in 10.0 mi East 3.5 mph - N/A   Clear
2:50 AM 46.4 °F 45.2 °F 41.0 °F 81% 30.23 in 10.0 mi East 3.5 mph - N/A   Clear
3:10 AM 46.4 °F 45.2 °F 39.2 °F 76% 30.23 in 10.0 mi ESE 3.5 mph - N/A   Clear
3:30 AM 46.4 °F 43.5 °F 39.2 °F 76% 30.23 in 10.0 mi ESE 5.8 mph - N/A   Clear
3:50 AM 44.6 °F - 37.4 °F 76% 30.23 in 10.0 mi Calm Calm - N/A   Clear
4:10 AM 44.6 °F 43.1 °F 37.4 °F 76% 30.23 in 10.0 mi East 3.5 mph - N/A   Clear
4:30 AM 44.6 °F 43.1 °F 37.4 °F 76% 30.23 in 10.0 mi East 3.5 mph - N/A   Clear
4:50 AM 42.8 °F - 37.4 °F 81% 30.23 in 10.0 mi Calm Calm - N/A   Clear
5:10 AM 42.8 °F - 37.4 °F 81% 30.23 in 10.0 mi Calm Calm - N/A   Clear
5:30 AM 42.8 °F 39.3 °F 37.4 °F 81% 30.23 in 10.0 mi East 5.8 mph - N/A   Mostly Cloudy
5:50 AM 42.8 °F 38.6 °F 39.2 °F 87% 30.23 in 10.0 mi East 6.9 mph - N/A   Scattered Clouds
6:10 AM 42.8 °F 39.3 °F 37.4 °F 81% 30.23 in 7.0 mi East 5.8 mph - N/A   Mostly Cloudy
6:30 AM 42.8 °F - 37.4 °F 81% 30.23 in 7.0 mi Calm Calm - N/A   Scattered Clouds
6:50 AM 42.8 °F - 37.4 °F 81% 30.24 in 7.0 mi Calm Calm - N/A   Scattered Clouds
7:10 AM 42.8 °F 41.1 °F 39.2 °F 87% 30.25 in 10.0 mi East 3.5 mph - N/A   Mostly Cloudy
7:30 AM 44.6 °F 43.1 °F 39.2 °F 81% 30.25 in 10.0 mi East 3.5 mph - N/A   Mostly Cloudy
7:50 AM 44.6 °F 40.7 °F 37.4 °F 76% 30.25 in 7.0 mi East 6.9 mph - N/A   Overcast
8:10 AM 44.6 °F 41.4 °F 37.4 °F 76% 30.25 in 7.0 mi East 5.8 mph - N/A   Overcast
8:30 AM 44.6 °F 41.4 °F 37.4 °F 76% 30.25 in 10.0 mi East 5.8 mph - N/A   Mostly Cloudy
8:50 AM 44.6 °F 39.2 °F 37.4 °F 76% 30.25 in 10.0 mi ENE 10.4 mph - N/A   Overcast
9:10 AM 46.4 °F 42.9 °F 37.4 °F 71% 30.25 in 10.0 mi ENE 6.9 mph - N/A   Overcast
9:30 AM 48.2 °F - 37.4 °F 66% 30.25 in 10.0 mi ESE 5.8 mph - N/A   Mostly Cloudy
9:50 AM 50.0 °F - 37.4 °F 62% 30.25 in 10.0 mi ESE 3.5 mph - N/A   Scattered Clouds
10:10 AM 48.2 °F - 37.4 °F 66% 30.25 in 10.0 mi East 3.5 mph - N/A   Scattered Clouds
10:30 AM 51.8 °F - 37.4 °F 58% 30.25 in 10.0 mi ESE 6.9 mph - N/A   Scattered Clouds
10:50 AM 51.8 °F - 37.4 °F 58% 30.25 in 10.0 mi ESE 5.8 mph - N/A   Clear
11:10 AM 53.6 °F - 37.4 °F 54% 30.24 in 10.0 mi SE 6.9 mph - N/A   Clear
11:30 AM 53.6 °F - 37.4 °F 54% 30.24 in 10.0 mi East 6.9 mph - N/A   Clear
11:50 AM 55.4 °F - 37.4 °F 51% 30.24 in 10.0 mi SE 4.6 mph - N/A   Clear
12:10 PM 55.4 °F - 37.4 °F 51% 30.23 in 10.0 mi Calm Calm - N/A   Clear
12:30 PM 57.2 °F - 37.4 °F 48% 30.23 in 10.0 mi SE 9.2 mph - N/A   Clear
12:50 PM 59.0 °F - 37.4 °F 45% 30.22 in 10.0 mi SE 5.8 mph - N/A   Clear
1:10 PM 60.8 °F - 37.4 °F 42% 30.22 in 10.0 mi Calm Calm - N/A   Clear
1:30 PM 62.6 °F - 33.8 °F 34% 30.21 in 10.0 mi East 4.6 mph - N/A   Clear
1:50 PM 62.6 °F - 35.6 °F 37% 30.20 in 10.0 mi SE 5.8 mph - N/A   Clear
2:10 PM 62.6 °F - 35.6 °F 37% 30.21 in 10.0 mi ESE 4.6 mph - N/A   Clear
2:30 PM 62.6 °F - 37.4 °F 39% 30.20 in 10.0 mi East 5.8 mph - N/A   Clear
2:50 PM 64.4 °F - 35.6 °F 34% 30.19 in 10.0 mi East 5.8 mph - N/A   Clear
3:10 PM 64.4 °F - 39.2 °F 40% 30.19 in 10.0 mi SSE 5.8 mph - N/A   Clear
3:30 PM 66.2 °F - 37.4 °F 35% 30.18 in 10.0 mi ESE 4.6 mph - N/A   Clear
3:50 PM 66.2 °F - 35.6 °F 32% 30.18 in 10.0 mi SE 5.8 mph - N/A   Clear
4:10 PM 66.2 °F - 33.8 °F 30% 30.17 in 10.0 mi SE 4.6 mph - N/A   Clear
4:30 PM 66.2 °F - 33.8 °F 30% 30.17 in 10.0 mi SE 8.1 mph - N/A   Clear
4:50 PM 66.2 °F - 35.6 °F 32% 30.17 in 10.0 mi SE 6.9 mph - N/A   Clear
5:10 PM 66.2 °F - 33.8 °F 30% 30.17 in 10.0 mi SE 9.2 mph 17.3 mph N/A   Clear
5:30 PM 66.2 °F - 33.8 °F 30% 30.17 in 10.0 mi ESE 6.9 mph - N/A   Clear
5:50 PM 64.4 °F - 35.6 °F 34% 30.17 in 10.0 mi ESE 8.1 mph - N/A   Clear
6:10 PM 64.4 °F - 35.6 °F 34% 30.16 in 10.0 mi ESE 4.6 mph - N/A   Clear
6:50 PM 64.4 °F - 35.6 °F 34% 30.17 in 10.0 mi SE 6.9 mph - N/A   Clear
7:10 PM 62.6 °F - 35.6 °F 37% 30.17 in 10.0 mi SE 9.2 mph - N/A   Clear
7:30 PM 62.6 °F - 37.4 °F 39% 30.18 in 10.0 mi ESE 5.8 mph - N/A   Clear
8:10 PM 59.0 °F - 39.2 °F 48% 30.19 in 10.0 mi SE 4.6 mph - N/A   Clear
8:30 PM 57.2 °F - 39.2 °F 51% 30.19 in 10.0 mi Calm Calm - N/A   Clear
8:50 PM 57.2 °F - 39.2 °F 51% 30.19 in 10.0 mi Calm Calm - N/A   Clear
9:10 PM 55.4 °F - 39.2 °F 54% 30.19 in 10.0 mi Calm Calm - N/A   Clear
9:25 PM 55.4 °F - 39.2 °F 54% 30.19 in 7.0 mi Calm Calm - N/A   Clear
9:50 PM 53.6 °F - 39.2 °F 58% 30.20 in 10.0 mi Calm Calm - N/A   Clear
10:35 PM 51.8 °F - 42.8 °F 71% 30.19 in 10.0 mi ESE 3.5 mph - N/A   Clear
10:55 PM 51.8 °F - 42.8 °F 71% 30.20 in 10.0 mi ESE 5.8 mph - N/A   Clear
11:15 PM 51.8 °F - 42.8 °F 71% 30.19 in 10.0 mi Calm Calm - N/A   Clear
11:35 PM 51.8 °F - 42.8 °F 71% 30.20 in 10.0 mi Calm Calm - N/A   Clear
11:55 PM 51.8 °F - 42.8 °F 71% 30.20 in 10.0 mi Calm Calm - N/A   Clear